Location: Agendoh
(31.0664°N, 8.9343°W)
Time: 08:22:29
(UTC+00:00)

Cosmos 1241 Rocket - Pass Details

Date: 06 December 2021
Orbit: 943 x 1005 km, 65.8° (Epoch: 24 January)

Event Time Altitude Azimuth Distance (km) Brightness Sun altitude
Exits shadow 05:26:34 45° 319° (NW) 1,267 4.7 -23.8°
Maximum altitude 05:28:34 75° 246° (WSW) 978 4.3 -23.4°
Drops below altitude 10° 05:34:45 10° 162° (SSE) 2,663 7.2 -22.1°
Sets 05:37:18 0° 160° (SSE) 3,612 7.9 -21.5°
